Regional Weather Roundup
Issued by NWS

Home | Current Version | Previous Version | Graphics & Text | Print | Product List | Glossary On
Versions: 1 2 3 4 5 6 7 8 9 10 11 12 13 14 15 16 17 18 19 20 21 22 23 24 25 26 27 28 29 30 31 32 33 34 35 36 37 38 39 40 41 42 43 44 45 46 47 48 49 50
000
ASUS45 KABQ 291310
RWRNM
NEW MEXICO REGIONAL WEATHER ROUNDUP
NATIONAL WEATHER SERVICE ALBUQUERQUE NM
700 AM MDT WED JUL 29 2015

NOTE: "FAIR" MEANS FEW OR NO CLOUDS BELOW 12,000 FEET AGL WITH NO
       SIGNIFICANT WEATHER OR OBSTRUCTIONS TO VISION.

      THIS PRODUCT IS RELEASED AS TWO VERSIONS.  ONE VERSION NEAR
      THE TOP OF THE HOUR CONTAINING PRELIMINARY DATA FROM ALBUQUERQUE
      AND OTHER STATIONS.  A FINAL VERSION WITH ADDITIONAL DATA IS
      ISSUED ABOUT 10 MINUTES AFTER THE HOUR.

NMZ501-503-504-510>518-291400-
NORTHWEST PLATEAU/NORTHCENTRAL MOUNTAINS

CITY           SKY/WX    TMP DP  RH WIND       PRES   REMARKS
FARMINGTON     CLEAR     61  33  35 N3        30.24R
LOS ALAMOS     CLOUDY    62  53  73 SW9       30.41R
SANTA FE       CLOUDY    64  53  67 S6        30.34R
TAOS           PTCLDY    54  41  62 CALM      30.41S
ANGEL FIRE     FOG       47  47  97 CALM      30.50R VSB<1/4

$$
NMZ402-403-502-505>509-291400-
WESTCENTRAL MOUNTAINS/SOUTHWEST MOUNTAINS

CITY           SKY/WX    TMP DP  RH WIND       PRES   REMARKS
GALLUP         CLOUDY    67  50  54 S6        30.32R
GRANTS         CLOUDY    61  56  83 S5        30.35S
SILVER CITY      N/A     66  57  72 SE6       30.29R

$$
NMZ407-409-411-412-291400-
SOUTHERN DESERTS

CITY           SKY/WX    TMP DP  RH WIND       PRES   REMARKS
LORDSBURG      FAIR      68  63  83 SE7       30.19R
DEMING         CLOUDY    72  60  66 CALM      30.20S
LAS CRUCES     CLOUDY    67  64  88 CALM      30.22F
HOLLOMAN AFB   MOCLDY    69  66  90 E5        30.19R
ALAMOGORDO     CLOUDY    68  63  83 NE8       30.21R
T OR C         CLOUDY    69  64  84 CALM      30.23R

$$
NMZ519>523-291400-
CENTRAL VALLEYS/CENTRAL HIGHLANDS

CITY           SKY/WX    TMP DP  RH WIND       PRES   REMARKS
ALBUQUERQUE    CLOUDY    72  55  55 CALM      30.29R
DOUBLE EAGLE   CLOUDY    66  57  72 S6        30.33R
MORIARTY ARPT    N/A     60  56  87 CALM      30.35S
CLINES CORNERS CLOUDY    60  52  74 N5        30.37S
BELEN          PTSUNNY   69  58  67 SE6       30.28R
SOCORRO        FAIR      67  59  73 CALM      30.24S

$$
NMZ524>526-539-540-291400-
SOUTHCENTRAL MOUNTAINS

CITY           SKY/WX    TMP DP  RH WIND       PRES   REMARKS
RUIDOSO          N/A    N/A N/A N/A MISG        N/A

$$
NMZ527>531-291400-
NORTHEAST HIGHLANDS/NORTHEAST PLAINS

CITY           SKY/WX    TMP DP  RH WIND       PRES   REMARKS
LAS VEGAS      MOCLDY    57  54  89 NE6       30.38R
RATON          SUNNY     58  54  86 NE5       30.35R
CLAYTON        MOSUNNY   63  60  90 SW3       30.29R

$$
NMZ532>537-291400-
EASTCENTRAL PLAINS

CITY           SKY/WX    TMP DP  RH WIND       PRES   REMARKS
TUCUMCARI      PTSUNNY   67  64  90 CALM      30.21R
CANNON AFB     PTSUNNY   67  65  94 NE6       30.22R
CLOVIS AIRPORT MOSUNNY   66  63  88 N5        30.23S

$$
NMZ028-029-538-291400-
SOUTHEAST PLAINS

CITY           SKY/WX    TMP DP  RH WIND       PRES   REMARKS
ROSWELL        MOCLDY    70  66  87 NE6       30.16R
ARTESIA        MOCLDY    72  70  94 VRB5      30.17R
CARLSBAD       MOCLDY    73  65  75 NW5       30.13R
HOBBS          SUNNY     70  63  78 N9        30.17R


$$



USA.gov is the U.S. government's official web portal to all federal, state and local government web resources and services.